[[{"header":{"parameterUnit":"m.s-1","parameterCategory":1,"la1":30.2991,"la2":30.254,"lo1":-89.0895,"lo2":-89.0444,"dy":0.0017,"dx":0.0017,"nx":28,"ny":28,"refTime":"2024-10-05T09:00:00:Z","depth":0,"parameterNumber":2,"parameterNumberName":"U-component_of_WINDS"},"data":[0,0,0,0,0,0,0,0,0,0,0,0,0,0,0,0,0,0,0,0,0,0,0,0,0,0,0,0,0,0,0,0,0,0,0,0,0,0,0,0,0,0,0,0,0,0,0,0,0,0,0,0,0,0,0,0,0,0,-5.0215,-5.0215,0,-5.0223,-5.0224,-5.0224,-5.0045,-5.004,-5.0035,-5.0031,-5.0041,-5.0046,-5.0051,0,0,0,0,0,0,0,0,0,0,0,0,0,-5.0044,-5.0048,-5.0215,-5.0215,-5.0215,-5.0223,-5.0224,-5.0224,-5.0046,-5.004,-5.0034,-5.0028,-5.004,-5.0045,-5.0051,0,0,0,0,0,0,0,0,0,0,0,0,0,-5.0092,-5.0049,-5.0215,-5.0127,-5.0119,-5.0223,-5.0224,-5.0224,-5.0047,-5.004,-5.0032,-5.0026,-5.0038,-5.0045,-5.0052,-5.0241,0,0,-5.0074,-5.0077,0,0,0,0,0,0,0,0,-5.009,-5.0098,-5.014,-5.0133,-5.0125,-5.0125,-5.0167,-5.023,-5.0049,-5.0074,-5.003,-5.0022,-5.0075,-5.0079,-5.0096,-5.0241,-5.0242,-5.0074,-5.0079,-5.0082,-5.0084,0,0,0,0,0,0,0,-5.0086,-5.0097,-5.0218,-5.0141,-5.0131,-5.0087,-5.0086,-5.0178,-5.0115,-5.0072,-5.0059,-5.0062,-5.007,-5.009,-5.0095,-5.0242,-5.0074,-5.008,-5.0085,-5.0088,-5.0542,-5.0549,0,0,0,0,0,0,-5.0095,-5.0096,-5.0218,-5.0218,-5.0089,-5.0096,-5.0095,-5.0133,-5.0114,-5.0104,-5.0068,-5.0054,-5.0081,-5.0087,-5.0095,-5.0315,-5.0082,-5.0088,-5.0092,-5.0534,-5.0544,-5.0552,0,0,0,0,0,0,-5.0092,-5.0108,-5.0217,-5.0153,-5.0164,-5.0107,-5.0151,-5.0137,-5.0157,-5.0111,-5.0099,-5.0101,-5.0076,-5.0085,-5.0206,-5.0313,-5.0092,-5.0098,-5.0525,-5.0537,-5.0548,-5.0757,0,0,0,0,0,0,-5.0088,-5.0107,-5.0179,-5.0156,-5.0168,-5.0329,-5.0157,-5.0142,-5.0169,-5.015,-5.0138,-5.0129,-5.0071,-5.0196,-5.0213,-5.0319,-5.0104,-5.0515,-5.053,-5.0544,-5.0741,-5.0775,-5.0804,0,0,0,0,0,-5.0082,-5.0238,-5.0183,-5.0199,-5.0256,-5.0335,-5.0342,-5.0271,-5.0179,-5.025,-5.022,-5.013,-5.0298,-5.021,-5.0227,-5.0337,-5.0508,-5.0526,-5.0543,-5.0726,-5.0768,-5.0803,0,0,0,0,0,0,-5.0275,-5.0233,-5.0172,-5.0325,-5.0335,-5.0305,-5.0392,-5.0317,-5.0354,-5.0335,-5.0245,-5.0244,-5.038,-5.037,-5.0272,-5.0519,-5.0387,-5.0409,-5.0521,-5.056,-5.0591,-5.0591,-5.011,0,0,0,0,0,-5.0335,-5.0402,-5.0362,-5.0501,-5.0509,-5.0451,-5.0482,-5.0427,-5.0433,-5.0437,-5.0416,-5.0427,-5.0481,-5.052,-5.0568,-5.0738,-5.0733,-5.0822,-5.0854,-5.088,-5.09,-5.099,-5.1029,-5.0609,-5.0609,-5.0609,0,0,-5.046,-5.0445,-5.0494,-5.0539,-5.054,-5.0612,-5.0455,-5.0538,-5.0591,-5.0449,-5.0562,-5.0548,-5.0553,-5.07,-5.0763,-5.0696,-5.1015,-5.0902,-5.0924,-5.0929,-5.1012,-5.1052,-5.1087,-5.0621,-5.0619,-5.0617,0,0,-5.0725,-5.0721,-5.0836,-5.084,-5.0843,-5.0803,-5.0831,-5.0812,-5.0797,-5.0909,-5.0804,-5.0865,-5.0962,-5.097,-5.0987,-5.1255,-5.1173,-5.1273,-5.1439,-5.1528,-5.1561,-5.159,-5.1686,-5.1721,-5.1293,-5.1294,-5.1294,0,-5.088,-5.0984,-5.0904,-5.0995,-5.1018,-5.0892,-5.1008,-5.1016,-5.1036,-5.1055,-5.0979,-5.1098,-5.1093,-5.1239,-5.1305,-5.1323,-5.1352,-5.1275,-5.1562,-5.159,-5.1616,-5.1707,-5.1743,-5.1306,-5.1305,-5.1304,-5.1302,0,-5.1175,-5.1249,-5.1342,-5.1363,-5.1397,-5.15,-5.1436,-5.1479,-5.1421,-5.1389,-5.1504,-5.1493,-5.1537,-5.1568,-5.1512,-5.1707,-5.1665,-5.1578,-5.1443,-5.167,-5.1754,-5.1788,-5.1324,-5.1319,-5.1316,-5.1313,0,0,-5.1562,-5.1538,-5.1574,-5.1582,-5.1576,-5.1632,-5.1729,-5.1771,-5.1811,-5.1828,-5.1908,-5.1992,-5.1911,-5.193,-5.1874,-5.1951,-5.2165,-5.1853,-5.1852,-5.1913,-5.238,-5.2447,-5.2489,-5.211,-5.2116,-5.2121,-5.238,0,-5.182,-5.1984,-5.1915,-5.2086,-5.2154,-5.2035,-5.212,-5.2126,-5.2099,-5.2152,-5.2121,-5.2183,-5.207,-5.2081,-5.2153,-5.2124,-5.2258,-5.2104,-5.2184,-5.2188,-5.2187,-5.2532,-5.2603,-5.2848,-5.2412,-5.2418,-5.2422,0,-5.2143,-5.2174,-5.2352,-5.2334,-5.2359,-5.2437,-5.247,-5.2522,-5.2527,-5.2501,-5.2524,-5.2449,-5.2543,-5.2409,-5.2538,-5.2435,-5.2463,-5.2454,-5.2462,-5.2467,-5.2319,-5.2548,-5.2924,-5.2961,-5.2472,-5.2468,-5.2465,0,-5.2409,-5.2494,-5.2611,-5.2622,-5.2604,-5.2662,-5.2657,-5.2654,-5.2684,-5.2713,-5.2731,-5.2772,-5.2794,-5.2827,-5.2766,-5.2674,-5.2904,-5.2764,-5.2886,-5.2888,-5.294,-5.2938,-5.3327,-5.2958,-5.2957,-5.2957,-5.2956,0,-5.2704,-5.2818,-5.2731,-5.2803,-5.2927,-5.2846,-5.2971,-5.2953,-5.2952,-5.3019,-5.2918,-5.2984,-5.2898,-5.2956,-5.2908,-5.3022,-5.3033,-5.3016,-5.3002,-5.3025,-5.3028,-5.3043,-5.3025,-5.2966,-5.2964,-5.2962,-5.2961,0,-5.3022,-5.2968,-5.3089,-5.3062,-5.3057,-5.315,-5.3127,-5.3193,-5.3158,-5.3244,-5.326,-5.3206,-5.3268,-5.321,-5.3269,-5.3237,-5.339,-5.3351,-5.3389,-5.3378,-5.3503,-5.3493,-5.3917,-5.3969,-5.3566,-5.357,-5.3573,0,-5.3215,-5.33,-5.3282,-5.3319,-5.3321,-5.3383,-5.3412,-5.3336,-5.3371,-5.3383,-5.3448,-5.3501,-5.3539,-5.3644,-5.361,-5.3655,-5.3617,-5.3762,-5.3623,-5.3644,-5.362,-5.3616,-5.3624,-5.3791,-5.3796,-5.38,-5.3803,0,-5.3563,-5.3532,-5.3579,-5.3617,-5.3656,-5.3682,-5.37,-5.3737,-5.3658,-5.3703,-5.3765,-5.3795,-5.3855,-5.3909,-5.3943,-5.3938,-5.3859,-5.3847,-5.3878,-5.3903,-5.3922,-5.3914,-5.3467,-5.3838,-5.3835,-5.3832,-5.383,-5.3829,-5.3824,-5.3894,-5.3893,-5.3948,-5.3954,-5.3974,-5.4034,-5.4007,-5.4057,-5.41,-5.4052,-5.4128,-5.4129,-5.4167,-5.4171,-5.423,-5.4169,-5.4213,-5.4224,-5.4237,-5.4255,-5.3912,-5.4236,-5.4234,-5.4233,-5.4233,-5.4232,0,-5.4168,-5.4161,-5.4213,-5.4241,-5.4286,-5.4206,-5.4222,-5.4264,-5.4332,-5.434,-5.438,-5.4452,-5.4504,-5.4474,-5.4519,-5.4572,-5.4537,-5.4586,-5.4582,-5.4582,-5.4307,-5.4276,-5.4614,-5.4614,-5.4614,-5.4614,-5.4614,-5.4614,-5.4351,-5.4465,-5.4434,-5.455,-5.4542,-5.4615,-5.4632,-5.4649,-5.4655,-5.474,-5.4782,-5.4762,-5.4756,-5.4799,-5.4844,-5.4833,-5.4855,-5.4919,-5.4896,-5.4639,-5.4602,-5.4566,-5.4537,-5.4924,-5.4924,-5.5166,-5.5168,-5.517]},{"header":{"parameterUnit":"m.s-1","parameterCategory":1,"la1":30.2991,"la2":30.254,"lo1":-89.0895,"lo2":-89.0444,"dy":0.0017,"dx":0.0017,"nx":28,"ny":28,"refTime":"2024-10-05T09:00:00:Z","depth":0,"parameterNumber":3,"parameterNumberName":"V-component_of_WINDS"},"data":[0,0,0,0,0,0,0,0,0,0,0,0,0,0,0,0,0,0,0,0,0,0,0,0,0,0,0,0,0,0,0,0,0,0,0,0,0,0,0,0,0,0,0,0,0,0,0,0,0,0,0,0,0,0,0,0,0,0,-3.7629,-3.7629,0,-3.7651,-3.7651,-3.7651,-3.7582,-3.758,-3.7578,-3.7576,-3.7599,-3.7601,-3.7604,0,0,0,0,0,0,0,0,0,0,0,0,0,-3.7526,-3.7529,-3.7629,-3.7629,-3.763,-3.7651,-3.7651,-3.7651,-3.7583,-3.758,-3.7578,-3.7575,-3.7598,-3.7601,-3.7604,0,0,0,0,0,0,0,0,0,0,0,0,0,-3.7562,-3.7529,-3.7629,-3.7598,-3.7595,-3.7651,-3.7651,-3.7651,-3.7583,-3.758,-3.7577,-3.7574,-3.7597,-3.7601,-3.7605,-3.7691,0,0,-3.7616,-3.7618,0,0,0,0,0,0,0,0,-3.756,-3.7566,-3.7602,-3.76,-3.7597,-3.7611,-3.7623,-3.7665,-3.7584,-3.7588,-3.7576,-3.7572,-3.7605,-3.7608,-3.7619,-3.7692,-3.7693,-3.7617,-3.7619,-3.7621,-3.7622,0,0,0,0,0,0,0,-3.7558,-3.7564,-3.7638,-3.7603,-3.76,-3.7582,-3.7584,-3.7631,-3.7614,-3.7587,-3.7582,-3.7586,-3.7603,-3.7616,-3.7619,-3.7694,-3.7617,-3.762,-3.7622,-3.7624,-3.7836,-3.7839,0,0,0,0,0,0,-3.7559,-3.7563,-3.7637,-3.7638,-3.757,-3.7587,-3.7588,-3.761,-3.7613,-3.7611,-3.7588,-3.7583,-3.7611,-3.7615,-3.762,-3.772,-3.7621,-3.7624,-3.7626,-3.7833,-3.7837,-3.7841,0,0,0,0,0,0,-3.7557,-3.7567,-3.7636,-3.7599,-3.7607,-3.7592,-3.7616,-3.7612,-3.7624,-3.7614,-3.7611,-3.7604,-3.7609,-3.7615,-3.7673,-3.772,-3.7626,-3.7629,-3.7829,-3.7834,-3.7839,-3.7922,0,0,0,0,0,0,-3.7555,-3.7566,-3.76,-3.76,-3.7609,-3.769,-3.7619,-3.7614,-3.7631,-3.7623,-3.7628,-3.7626,-3.7606,-3.7668,-3.7677,-3.7723,-3.7632,-3.7825,-3.7831,-3.7837,-3.7915,-3.7929,-3.7942,0,0,0,0,0,-3.7551,-3.7623,-3.7602,-3.7611,-3.765,-3.7693,-3.7698,-3.7674,-3.7635,-3.7668,-3.7661,-3.7626,-3.7713,-3.7675,-3.7684,-3.7733,-3.7822,-3.7829,-3.7837,-3.7909,-3.7927,-3.7941,0,0,0,0,0,0,-3.7629,-3.7623,-3.7599,-3.7673,-3.7684,-3.7681,-3.7722,-3.7693,-3.7715,-3.7707,-3.7677,-3.7678,-3.7743,-3.7743,-3.77,-3.7815,-3.7761,-3.7771,-3.7813,-3.7829,-3.7842,-3.784,-3.7636,0,0,0,0,0,-3.7654,-3.769,-3.7682,-3.7748,-3.7755,-3.7738,-3.7755,-3.7736,-3.7746,-3.775,-3.7748,-3.7759,-3.7788,-3.7809,-3.7836,-3.7915,-3.7914,-3.7952,-3.7966,-3.7977,-3.7985,-3.8025,-3.8042,-3.7865,-3.7865,-3.7865,0,0,-3.7708,-3.7709,-3.7733,-3.7764,-3.777,-3.7806,-3.7742,-3.7784,-3.781,-3.7756,-3.7811,-3.781,-3.782,-3.7889,-3.7919,-3.7892,-3.8034,-3.7986,-3.7995,-3.7998,-3.8035,-3.8051,-3.8066,-3.787,-3.7869,-3.7869,0,0,-3.7824,-3.7829,-3.7883,-3.789,-3.7899,-3.7887,-3.79,-3.7901,-3.7898,-3.7953,-3.7912,-3.7943,-3.7996,-3.8004,-3.8015,-3.8131,-3.8099,-3.8141,-3.821,-3.8249,-3.8263,-3.8275,-3.8315,-3.833,-3.815,-3.815,-3.815,0,-3.7889,-3.7943,-3.7915,-3.7959,-3.7973,-3.7924,-3.7979,-3.7987,-3.8005,-3.8015,-3.7984,-3.8047,-3.8051,-3.812,-3.8148,-3.8159,-3.8172,-3.814,-3.8263,-3.8275,-3.8286,-3.8324,-3.8339,-3.8155,-3.8154,-3.8154,-3.8153,0,-3.8022,-3.8059,-3.8102,-3.8119,-3.8138,-3.8187,-3.8166,-3.8188,-3.8166,-3.8157,-3.8212,-3.8215,-3.824,-3.8255,-3.8235,-3.8321,-3.8303,-3.8269,-3.8213,-3.8308,-3.8343,-3.8358,-3.8162,-3.816,-3.8159,-3.8158,0,0,-3.8189,-3.8188,-3.8204,-3.8211,-3.8217,-3.8245,-3.8291,-3.8315,-3.8334,-3.8348,-3.8385,-3.8429,-3.8396,-3.8408,-3.8388,-3.8423,-3.8513,-3.8383,-3.8383,-3.8406,-3.8606,-3.8632,-3.865,-3.8492,-3.8494,-3.8496,-3.8605,0,-3.8302,-3.838,-3.8355,-3.8434,-3.8467,-3.8421,-3.8461,-3.8468,-3.846,-3.8487,-3.8478,-3.8509,-3.8464,-3.8471,-3.8503,-3.8495,-3.8553,-3.8487,-3.8525,-3.8527,-3.8524,-3.8668,-3.8696,-3.8798,-3.8619,-3.8621,-3.8623,0,-3.8444,-3.8462,-3.8544,-3.8542,-3.8555,-3.8591,-3.861,-3.8637,-3.8644,-3.8635,-3.8648,-3.862,-3.8664,-3.8609,-3.8668,-3.8624,-3.8638,-3.8636,-3.864,-3.8642,-3.858,-3.8673,-3.8831,-3.8846,-3.8644,-3.8643,-3.8641,0,-3.8556,-3.8601,-3.8655,-3.8662,-3.8661,-3.8688,-3.8689,-3.8692,-3.8708,-3.8724,-3.8734,-3.8756,-3.8768,-3.8785,-3.8763,-3.8725,-3.8826,-3.8769,-3.8819,-3.882,-3.8842,-3.8841,-3.9003,-3.8853,-3.8853,-3.8852,-3.8852,0,-3.8685,-3.8736,-3.8705,-3.8738,-3.8794,-3.8764,-3.8821,-3.8816,-3.882,-3.8851,-3.8812,-3.8842,-3.8812,-3.8839,-3.8822,-3.8873,-3.8879,-3.8873,-3.8868,-3.8876,-3.8877,-3.8885,-3.8877,-3.8856,-3.8855,-3.8855,-3.8854,0,-3.8819,-3.88,-3.8856,-3.885,-3.885,-3.8891,-3.8886,-3.8916,-3.8904,-3.8944,-3.8952,-3.8934,-3.8963,-3.8943,-3.8974,-3.8962,-3.9028,-3.9014,-3.9026,-3.9022,-3.9073,-3.9068,-3.9245,-3.9267,-3.9103,-3.9105,-3.9106,0,-3.8902,-3.8941,-3.8938,-3.8956,-3.8959,-3.8988,-3.9003,-3.8975,-3.8992,-3.9001,-3.903,-3.9056,-3.9075,-3.9125,-3.9114,-3.9137,-3.9122,-3.9182,-3.9125,-3.9131,-3.9121,-3.9119,-3.9122,-3.9194,-3.9196,-3.9197,-3.9199,0,-3.9051,-3.9039,-3.9062,-3.9081,-3.91,-3.9114,-3.9125,-3.9141,-3.9113,-3.9134,-3.9163,-3.9178,-3.9207,-3.9233,-3.9251,-3.9251,-3.922,-3.9216,-3.9229,-3.9238,-3.9243,-3.924,-3.9057,-3.9213,-3.9211,-3.921,-3.9209,-3.9209,-3.9162,-3.9193,-3.9195,-3.9221,-3.9226,-3.9236,-3.9264,-3.9255,-3.9279,-3.93,-3.9282,-3.9316,-3.932,-3.9341,-3.9345,-3.9371,-3.9346,-3.9365,-3.937,-3.9375,-3.9381,-3.9239,-3.9374,-3.9374,-3.9374,-3.9373,-3.9373,0,-3.9308,-3.9306,-3.933,-3.9346,-3.9366,-3.9334,-3.9343,-3.9362,-3.9393,-3.9399,-3.9418,-3.9451,-3.9475,-3.9466,-3.9487,-3.951,-3.9496,-3.9517,-3.9514,-3.9515,-3.9403,-3.9389,-3.9527,-3.9527,-3.9527,-3.9527,-3.9527,-3.9527,-3.9386,-3.9436,-3.9424,-3.9475,-3.9473,-3.9506,-3.9514,-3.9523,-3.9528,-3.9565,-3.9585,-3.9579,-3.9578,-3.9599,-3.9619,-3.9616,-3.9625,-3.9651,-3.9642,-3.9538,-3.9523,-3.9508,-3.9495,-3.9653,-3.9653,-3.9752,-3.9752,-3.9753]}]]